Home   Weather   Campbell River   Past weeks

Flag for Canada Past Weather in Campbell River, British Columbia, Canada — Yesterday and Last 2 Weeks

Now
55 °F

Light rain. Mostly cloudy.


Feels Like: 53 °F
Forecast: 52 / 60 °F
Wind: 9 mph from Southeast

Location: Comox

Current Time: Sep 25, 2016 at 1:54:10 AM

Latest Report: Sep 25, 2016 at 1:00 AM


Visibility: 15 mi

Pressure: 30.39 "Hg

Humidity: 88%

Dew Point: 52 °F

Location of Campbell RiverLocation

Past Weather in Campbell River — Graph

°F

Campbell River Temperature Yesterday

Maximum temperature yesterday: 55 °F (at 1:00 PM)
Minimum temperature yesterday: 45 °F (at 3:45 AM)
Average temperature yesterday: 52 °F

High & Low Weather Summary for the Past Weeks

 TemperatureHumidityPressure
High73 °F (Sep 13, 6:00 PM)100% (Sep 10, 7:00 AM)30.38 "Hg (Sep 10, 7:00 AM)
Low45 °F (Sep 24, 3:45 AM)31% (Sep 12, 7:00 PM)29.78 "Hg (Sep 17, 9:00 AM)
Average58 °F80%30.08 "Hg
* Reported Sep 10 12:00 AM — Sep 25 12:00 AM, Campbell River, Weather by CustomWeather, © 2016

Note: Actual official high and low records may vary slightly from our data, if they occured in-between our weather recording intervals... More about our weather records

Advertising

Campbell River Weather History for the Previous 24 Hours

Scroll right to see more
 ConditionsComfort  
Time TempWeatherWind HumidityBarometerVisibility
12:00 AM
Sun, Sep 25
55 °FMostly cloudy.9 mph94%30.38 "Hg15 mi
11:00 PM
Sat, Sep 24
55 °FMostly cloudy.9 mph94%30.38 "Hg12 mi
10:00 PM55 °FSprinkles. Overcast.9 mph94%30.38 "Hg15 mi
9:00 PM55 °FSprinkles. Mostly cloudy.10 mph88%30.37 "Hg15 mi
8:00 PM55 °FSprinkles. Mostly cloudy.6 mph94%30.36 "Hg15 mi
7:00 PM55 °FLight rain. Fog.6 mph94%30.35 "Hg6 mi
6:00 PM55 °FOvercast.8 mph88%30.34 "Hg20 mi
5:00 PM55 °FOvercast.10 mph94%30.34 "Hg20 mi
4:00 PM55 °FLight rain. Overcast.12 mph94%30.34 "Hg15 mi
3:00 PM55 °FOvercast.8 mph88%30.35 "Hg20 mi
2:00 PM55 °FCloudy.6 mph88%30.36 "Hg20 mi
1:00 PM55 °FMostly cloudy.6 mph88%30.37 "Hg20 mi
12:00 PM54 °FMostly cloudy.2 mph94%30.38 "Hg20 mi
11:00 AM54 °FMostly cloudy.3 mph94%30.38 "Hg20 mi
10:00 AM52 °FMostly cloudy.2 mph100%30.38 "Hg20 mi
9:00 AM50 °FFog.No wind100%30.35 "Hg4 mi
8:00 AM50 °FFog.2 mph100%30.32 "Hg2 mi
7:00 AM48 °FFog.2 mph100%30.32 "Hg2 mi
6:00 AM48 °FFog.3 mph100%30.30 "Hg1 mi
5:00 AM46 °FFog.3 mph100%30.29 "Hg1 mi
4:00 AM46 °FFog.3 mph93%30.28 "Hg4 mi
3:45 AM45 °FFog.5 mph100%30.28 "Hg4 mi
3:00 AM46 °FPassing clouds.2 mph93%30.27 "Hg20 mi
2:00 AM46 °FPassing clouds.No wind93%30.25 "Hg20 mi
1:00 AM48 °FLight fog.3 mph94%30.23 "Hg15 mi
Weather by CustomWeather, © 2016

See weather overviewHow to use our weather pages